Hourly Weather Bolshoe Alekseycevo

Today, 17 June, Thursday

Time Temperature Precipitation Wind Pressure Humidity
00:00 +12°C° 0 mm 2 mps 750 mmHg 66%
01:00 +10°C° 0 mm 2 mps 751 mmHg 68%
02:00 +9°C° 0 mm 2 mps 751 mmHg 70%
03:00 +10°C° 0 mm 2 mps 751 mmHg 68%
04:00 +12°C° 0 mm 1 mps 752 mmHg 66%
05:00 +13°C° 0 mm 1 mps 752 mmHg 64%
06:00 +15°C° 0 mm 1 mps 752 mmHg 58%
07:00 +17°C° 0 mm 2 mps 752 mmHg 53%
08:00 +19°C° 0 mm 2 mps 753 mmHg 47%
09:00 +20°C° 0 mm 2 mps 753 mmHg 44%
10:00 +21°C° 0 mm 3 mps 753 mmHg 41%
11:00 +24°C° 0 mm 3 mps 753 mmHg 38%
12:00 +24°C° 0 mm 3 mps 753 mmHg 38%
13:00 +25°C° 0 mm 4 mps 753 mmHg 37%
14:00 +25°C° 0 mm 4 mps 753 mmHg 36%
15:00 +25°C° 0 mm 3 mps 753 mmHg 40%
16:00 +25°C° 0 mm 3 mps 753 mmHg 44%
17:00 +24°C° 0 mm 3 mps 753 mmHg 47%
18:00 +23°C° 0 mm 2 mps 753 mmHg 55%
19:00 +20°C° 0 mm 2 mps 753 mmHg 62%
20:00 +19°C° 0 mm 1 mps 753 mmHg 69%
21:00 +18°C° 0 mm 1 mps 754 mmHg 69%
22:00 +16°C° 0 mm 1 mps 754 mmHg 70%
23:00 +15°C° 0 mm 1 mps 754 mmHg 70%

Tomorrow, 18 June, Friday

Time Temperature Precipitation Wind Pressure Humidity
00:00 +14°C° 0 mm 1 mps 754 mmHg 71%
01:00 +13°C° 0 mm 0 mps 754 mmHg 72%
02:00 +12°C° 0 mm 0 mps 755 mmHg 72%
03:00 +13°C° 0 mm 0 mps 755 mmHg 71%
04:00 +15°C° 0 mm 1 mps 755 mmHg 71%
05:00 +16°C° 0 mm 1 mps 755 mmHg 70%
06:00 +19°C° 0 mm 1 mps 755 mmHg 64%
07:00 +20°C° 0 mm 2 mps 755 mmHg 59%
08:00 +23°C° 0 mm 2 mps 755 mmHg 53%
09:00 +24°C° 0 mm 2 mps 755 mmHg 50%
10:00 +25°C° 0 mm 3 mps 755 mmHg 46%
11:00 +27°C° 0 mm 3 mps 754 mmHg 43%
12:00 +27°C° 0 mm 3 mps 754 mmHg 42%
13:00 +28°C° 0 mm 4 mps 754 mmHg 41%
14:00 +28°C° 0 mm 4 mps 753 mmHg 40%
15:00 +28°C° 0 mm 4 mps 753 mmHg 43%
16:00 +28°C° 0 mm 3 mps 753 mmHg 46%
17:00 +28°C° 0 mm 3 mps 752 mmHg 49%
18:00 +26°C° 0 mm 3 mps 752 mmHg 58%
19:00 +24°C° 0 mm 3 mps 752 mmHg 66%
20:00 +21°C° 0 mm 2 mps 752 mmHg 75%
21:00 +20°C° 0 mm 3 mps 752 mmHg 78%
22:00 +19°C° 0 mm 3 mps 753 mmHg 81%
23:00 +18°C° 0 mm 3 mps 753 mmHg 84%

Day after tomorrow, 19 June, Saturday

Time Temperature Precipitation Wind Pressure Humidity
00:00 +17°C° 0 mm 2 mps 753 mmHg 86%
01:00 +17°C° 0 mm 2 mps 753 mmHg 88%
02:00 +16°C° 0 mm 2 mps 753 mmHg 90%
03:00 +17°C° 0 mm 2 mps 753 mmHg 86%
04:00 +18°C° 0 mm 2 mps 753 mmHg 83%
05:00 +19°C° 0 mm 2 mps 753 mmHg 79%
06:00 +21°C° 0 mm 3 mps 753 mmHg 72%
07:00 +24°C° 0 mm 3 mps 753 mmHg 65%
08:00 +26°C° 0 mm 4 mps 753 mmHg 58%
09:00 +27°C° 0 mm 4 mps 753 mmHg 53%
10:00 +28°C° 0 mm 4 mps 753 mmHg 49%
11:00 +29°C° 0 mm 4 mps 753 mmHg 45%
12:00 +29°C° 0 mm 4 mps 752 mmHg 43%
13:00 +30°C° 0 mm 4 mps 752 mmHg 42%
14:00 +30°C° 0 mm 4 mps 752 mmHg 41%
15:00 +30°C° 0 mm 4 mps 752 mmHg 43%
16:00 +29°C° 0 mm 4 mps 751 mmHg 46%
17:00 +29°C° 0 mm 3 mps 751 mmHg 49%
18:00 +27°C° 0 mm 3 mps 751 mmHg 57%
19:00 +25°C° 0 mm 3 mps 751 mmHg 66%
20:00 +23°C° 0 mm 2 mps 751 mmHg 75%
21:00 +21°C° 0 mm 2 mps 751 mmHg 78%
22:00 +19°C° 0 mm 2 mps 752 mmHg 82%
23:00 +18°C° 0 mm 2 mps 752 mmHg 85%

20 June, Sunday

Time Temperature Precipitation Wind Pressure Humidity
00:00 +18°C° 0 mm 2 mps 752 mmHg 87%
01:00 +17°C° 0 mm 2 mps 752 mmHg 89%
02:00 +17°C° 0 mm 2 mps 752 mmHg 91%
03:00 +18°C° 0 mm 2 mps 752 mmHg 88%
04:00 +19°C° 0 mm 2 mps 752 mmHg 84%
05:00 +20°C° 0 mm 2 mps 752 mmHg 81%
06:00 +21°C° 0 mm 2 mps 752 mmHg 74%
07:00 +24°C° 0 mm 2 mps 752 mmHg 67%
08:00 +26°C° 0 mm 2 mps 752 mmHg 60%
09:00 +27°C° 0 mm 3 mps 752 mmHg 56%
10:00 +28°C° 0 mm 3 mps 752 mmHg 52%
11:00 +29°C° 0 mm 3 mps 751 mmHg 49%
12:00 +30°C° 0 mm 3 mps 751 mmHg 46%
13:00 +30°C° 0 mm 4 mps 751 mmHg 44%
14:00 +30°C° 0 mm 4 mps 751 mmHg 42%
15:00 +30°C° 0 mm 4 mps 750 mmHg 44%
16:00 +30°C° 0 mm 3 mps 750 mmHg 47%
17:00 +29°C° 0 mm 3 mps 750 mmHg 49%
18:00 +27°C° 0 mm 3 mps 750 mmHg 57%
19:00 +25°C° 0 mm 3 mps 750 mmHg 65%
20:00 +22°C° 0 mm 3 mps 750 mmHg 73%
21:00 +21°C° 0 mm 2 mps 750 mmHg 76%
22:00 +21°C° 0 mm 2 mps 750 mmHg 78%
23:00 +20°C° 0 mm 2 mps 750 mmHg 81%

21 June, Monday

Time Temperature Precipitation Wind Pressure Humidity
00:00 +20°C° 0 mm 2 mps 750 mmHg 83%
01:00 +19°C° 0 mm 2 mps 750 mmHg 85%
02:00 +19°C° 0 mm 2 mps 750 mmHg 87%
03:00 +20°C° 0 mm 2 mps 750 mmHg 87%
04:00 +20°C° 0 mm 2 mps 750 mmHg 86%
05:00 +21°C° 0 mm 2 mps 750 mmHg 86%
06:00 +24°C° 0 mm 2 mps 750 mmHg 78%
07:00 +26°C° 0 mm 3 mps 750 mmHg 70%
08:00 +27°C° 0 mm 3 mps 750 mmHg 62%
09:00 +29°C° 0 mm 3 mps 750 mmHg 57%
10:00 +30°C° 0 mm 3 mps 750 mmHg 53%
11:00 +32°C° 0 mm 4 mps 750 mmHg 49%
12:00 +30°C° 0 mm 3 mps 750 mmHg 52%
13:00 +29°C° 0 mm 2 mps 750 mmHg 56%
14:00 +28°C° 0 mm 2 mps 750 mmHg 60%
15:00 +28°C° 0 mm 2 mps 750 mmHg 61%
16:00 +28°C° 0 mm 1 mps 750 mmHg 62%
17:00 +28°C° 0 mm 1 mps 750 mmHg 64%
18:00 +27°C° 0 mm 1 mps 750 mmHg 67%
19:00 +26°C° 0 mm 1 mps 750 mmHg 70%
20:00 +25°C° 0 mm 1 mps 750 mmHg 73%
21:00 +24°C° 0 mm 1 mps 750 mmHg 73%
22:00 +24°C° 0 mm 1 mps 750 mmHg 73%
23:00 +24°C° 0 mm 1 mps 750 mmHg 74%

22 June, Tuesday

Time Temperature Precipitation Wind Pressure Humidity
00:00 +23°C° 0 mm 1 mps 750 mmHg 76%
01:00 +23°C° 0 mm 1 mps 750 mmHg 78%
02:00 +23°C° 0 mm 1 mps 751 mmHg 80%
03:00 +23°C° 0 mm 1 mps 751 mmHg 80%
04:00 +24°C° 0 mm 1 mps 751 mmHg 80%
05:00 +24°C° 0 mm 1 mps 751 mmHg 80%
06:00 +25°C° 0 mm 1 mps 751 mmHg 75%
07:00 +24°C° 0 mm 0 mps 751 mmHg 70%
08:00 +25°C° 0 mm 0 mps 751 mmHg 65%
09:00 +27°C° 0 mm 0 mps 751 mmHg 58%
10:00 +29°C° 0 mm 0 mps 752 mmHg 51%
11:00 +32°C° 0 mm 1 mps 752 mmHg 45%
12:00 +32°C° 0 mm 1 mps 751 mmHg 45%
13:00 +32°C° 0 mm 1 mps 751 mmHg 45%
14:00 +32°C° 0 mm 1 mps 751 mmHg 46%
15:00 +31°C° 0 mm 1 mps 751 mmHg 47%
16:00 +31°C° 0 mm 1 mps 751 mmHg 48%
17:00 +31°C° 0 mm 1 mps 751 mmHg 49%
18:00 +29°C° 0 mm 1 mps 751 mmHg 58%
19:00 +27°C° 0 mm 1 mps 751 mmHg 67%
20:00 +25°C° 0 mm 2 mps 751 mmHg 76%
21:00 +24°C° 0 mm 1 mps 751 mmHg 78%
22:00 +24°C° 0 mm 1 mps 751 mmHg 80%
23:00 +23°C° 0 mm 1 mps 752 mmHg 82%
Show more